Location: Cartignies
(50.0929°N, 3.8447°E)
Time: 14:31:08
(UTC+00:00)

Cosmos 676 Rocket - Pass Details

Date: 12 January 2026
Orbit: 750 x 779 km, 74.0° (Epoch: 16 February)

Event Time Altitude Azimuth Distance (km) Brightness Sun altitude
Rises 17:12:44 0° 337° (NNW) 3,214 7.3 -10.2°
Reaches altitude 10° 17:15:06 10° 339° (NNW) 2,288 6.5 -10.6°
Maximum altitude 17:20:18 73° 65° (ENE) 796 3.9 -11.4°
Drops below altitude 10° 17:25:28 10° 150° (SSE) 2,288 6.4 -12.1°
Sets 17:27:51 0° 152° (SSE) 3,214 7.1 -12.5°
